Location: Olomouc
(49.5830°N, 17.2500°E)
Time: 19:18:15
(UTC+02:00)

ISS - Pass Details

Date: 13 May 2021
Orbit: 417 x 422 km, 51.6° (Epoch: 14 June)

Event Time Altitude Azimuth Distance (km) Brightness Sun altitude
Exits shadow 02:03:52 21° 288° (WNW) 1,001 -1.9 -19.9°
Maximum altitude 02:05:54 59° 2° (N) 495 -3.2 -19.8°
Drops below altitude 10° 02:09:16 10° 83° (E) 1,509 -0.6 -19.6°
Sets 02:11:23 0° 88° (E) 2,374 0.4 -19.5°
